FW8256 Weather Reports


Display with metric or nautical units.
time (UTC)temp
F
wind
direction
speed
MPH
gust
MPH
rain 1hr
in
rain 24hr
in
rain mn
in
humidity
%
barometer
mb
20210929023125 78 146 5.0 12.0 0.00 0.00 0.00 65 1007.2
20210929021608 79 98 7.0 15.0 0.00 0.00 0.00 61 1006.8
20210929020132 81 209 4.0 10.0 0.00 0.00 0.00 61 1006.4
20210929014550 82 150 6.0 12.0 0.00 0.00 0.00 61 1005.9
20210929013056 82 168 4.0 9.0 0.00 0.00 0.00 59 1005.7
20210929011622 83 240 2.0 9.0 0.00 0.00 0.00 57 1005.5
20210929010124 84 196 3.0 8.0 0.00 0.00 0.00 55 1005.0
20210929004610 85 142 4.0 8.0 0.00 0.00 0.00 52 1005.0
20210929003115 86 138 4.0 10.0 0.00 0.00 0.00 50 1004.9
20210929001648 87 150 3.0 12.0 0.00 0.00 0.00 48 1004.9
20210929000116 88 155 5.0 13.0 0.00 0.00 0.00 47 1004.8
20210928234619 88 109 4.0 9.0 0.00 0.00 0.00 46 1004.8
20210928233105 89 142 2.0 7.0 0.00 0.00 0.00 46 1004.4
20210928231558 90 144 3.0 6.0 0.00 0.00 0.00 45 1004.3
20210928230128 90 107 4.0 9.0 0.00 0.00 0.00 44 1004.2
20210928224747 90 117 4.0 7.0 0.00 0.00 0.00 44 1004.4
20210928223053 90 141 3.0 8.0 0.00 0.00 0.00 43 1004.6
20210928221627 91 135 4.0 8.0 0.00 0.00 0.00 43 1004.5
20210928220134 92 170 4.0 9.0 0.00 0.00 0.00 41 1004.5
20210928214636 92 146 4.0 10.0 0.00 0.00 0.00 41 1004.5
20210928213107 92 155 2.0 8.0 0.00 0.00 0.00 42 1004.5
20210928211617 92 159 2.0 8.0 0.00 0.00 0.00 43 1004.7
20210928210045 91 153 5.0 8.0 0.00 0.00 0.00 43 1004.8
20210928204541 92 156 4.0 11.0 0.00 0.00 0.00 41 1005.0
20210928203111 92 117 6.0 13.0 0.00 0.00 0.00 42 1005.4
20210928201538 92 97 5.0 11.0 0.00 0.00 0.00 41 1005.6
20210928200043 92 141 3.0 9.0 0.00 0.00 0.00 42 1006.0
20210928194533 92 101 4.0 10.0 0.00 0.00 0.00 43 1006.5
20210928193040 92 128 4.0 10.0 0.00 0.00 0.00 44 1006.7
20210928191518 92 159 3.0 7.0 0.00 0.00 0.00 42 1006.9
20210928190019 91 213 5.0 10.0 0.00 0.00 0.00 43 1007.2
20210928184540 91 143 3.0 7.0 0.00 0.00 0.00 44 1007.5
20210928183010 90 162 4.0 11.0 0.00 0.00 0.00 47 1007.7
20210928181507 90 142 3.0 10.0 0.00 0.00 0.00 46 1007.9
20210928180002 90 148 4.0 10.0 0.00 0.00 0.00 46 1008.0
20210928174710 89 161 5.0 10.0 0.00 0.00 0.00 46 1008.2
20210928173143 88 140 3.0 8.0 0.00 0.00 0.00 49 1008.2
20210928171655 88 155 3.0 7.0 0.00 0.00 0.00 49 1008.3
20210928170115 87 188 2.0 7.0 0.00 0.00 0.00 49 1008.4
20210928164620 86 121 2.0 8.0 0.00 0.00 0.00 51 1008.4
20210928163141 85 196 2.0 7.0 0.00 0.00 0.00 52 1008.4
20210928161620 83 119 3.0 8.0 0.00 0.00 0.00 53 1008.5
20210928160105 82 159 2.0 8.0 0.00 0.00 0.00 55 1008.6
20210928154545 81 148 3.0 7.0 0.00 0.00 0.00 58 1008.7
20210928153142 79 192 2.0 6.0 0.00 0.00 0.00 59 1008.8
20210928151534 78 158 3.0 9.0 0.00 0.00 0.00 61 1009.0
20210928150026 77 148 2.0 6.0 0.00 0.00 0.00 63 1009.1
20210928144526 76 140 4.0 10.0 0.00 0.00 0.00 64 1009.0
20210928143018 74 176 3.0 9.0 0.00 0.00 0.00 67 1008.9
20210928141533 73 144 4.0 9.0 0.00 0.00 0.00 69 1009.0
20210928140016 72 152 2.0 7.0 0.00 0.00 0.00 71 1009.1
20210928134526 71 249 5.0 11.0 0.00 0.00 0.00 73 1009.2
20210928133031 69 224 4.0 7.0 0.00 0.00 0.00 75 1009.3
20210928131515 68 177 4.0 10.0 0.00 0.00 0.00 77 1009.3
20210928130029 67 192 4.0 10.0 0.00 0.00 0.00 79 1009.1
20210928124558 67 169 4.0 9.0 0.00 0.00 0.00 79 1009.1
20210928123102 67 186 3.0 9.0 0.00 0.00 0.00 78 1009.0
20210928121510 67 105 3.0 9.0 0.00 0.00 0.00 78 1009.0
20210928120008 67 137 4.0 9.0 0.00 0.00 0.00 77 1009.1
20210928114516 67 167 4.0 11.0 0.00 0.00 0.00 76 1009.0
20210928113010 67 220 3.0 9.0 0.00 0.00 0.00 75 1008.9
20210928104614 68 186 4.0 8.0 0.00 0.00 0.00 73 1009.0
20210928103155 69 152 3.0 8.0 0.00 0.00 0.00 72 1009.0
20210928101647 69 155 3.0 7.0 0.00 0.00 0.00 71 1009.0
20210928100100 69 198 2.0 7.0 0.00 0.00 0.00 70 1009.0
20210928094607 70 193 3.0 8.0 0.00 0.00 0.00 69 1009.1
20210928093115 70 188 3.0 7.0 0.00 0.00 0.00 68 1009.0
20210928091616 71 150 3.0 8.0 0.00 0.00 0.00 66 1008.9
20210928090200 72 166 3.0 10.0 0.00 0.00 0.00 64 1009.0
20210928084553 72 173 4.0 9.0 0.00 0.00 0.00 63 1009.1
20210928083114 72 167 3.0 8.0 0.00 0.00 0.00 62 1009.2
20210928081537 73 192 3.0 11.0 0.00 0.00 0.00 61 1009.3
20210928080111 73 190 4.0 9.0 0.00 0.00 0.00 60 1009.4
20210928074543 73 109 4.0 9.0 0.00 0.00 0.00 60 1009.4
20210928073120 73 165 5.0 7.0 0.00 0.00 0.00 59 1009.4
20210928071530 74 160 5.0 12.0 0.00 0.00 0.00 58 1009.5
20210928070039 74 162 5.0 10.0 0.00 0.00 0.00 57 1009.6
20210928064603 74 153 3.0 11.0 0.00 0.00 0.00 56 1009.8
20210928063118 74 182 4.0 11.0 0.00 0.00 0.00 56 1009.9
20210928061527 74 144 4.0 8.0 0.00 0.00 0.00 55 1009.9
20210928060037 74 210 5.0 13.0 0.00 0.00 0.00 55 1009.8
20210928054519 75 150 4.0 10.0 0.00 0.00 0.00 54 1010.0
20210928053018 75 167 4.0 8.0 0.00 0.00 0.00 54 1010.0
20210928051534 75 207 5.0 10.0 0.00 0.00 0.00 54 1010.0
20210928050048 75 166 4.0 11.0 0.00 0.00 0.00 53 1010.0
20210928044552 75 162 4.0 12.0 0.00 0.00 0.00 53 1010.0
20210928043007 75 188 4.0 8.0 0.00 0.00 0.00 53 1009.8
20210928041540 75 174 3.0 7.0 0.00 0.00 0.00 53 1009.6
20210928040011 76 181 3.0 10.0 0.00 0.00 0.00 53 1009.6
20210928034513 77 243 3.0 8.0 0.00 0.00 0.00 52 1009.6
20210928033005 77 196 3.0 7.0 0.00 0.00 0.00 51 1009.6
20210928031506 78 140 3.0 10.0 0.00 0.00 0.00 49 1009.4
20210928024503 80 182 3.0 9.0 0.00 0.00 0.00 46 1009.1